Regional Weather Roundup
Issued by NWS Sterling, VA

Home | Current Version | Previous Version | Graphics & Text | Print | Product List | Glossary On
Versions: 1 2 3 4 5 6 7 8 9 10 11 12 13 14 15 16 17 18 19 20 21 22 23 24 25 26 27 28 29 30 31 32 33 34 35 36 37 38 39 40 41 42 43 44 45 46 47 48 49 50
000
ASUS41 KLWX 201210
RWRLWX

REGIONAL WEATHER ROUNDUP
NATIONAL WEATHER SERVICE BALTIMORE MD/WASHINGTON DC
800 AM EDT SAT SEP 20 2014

Note: "FAIR" indicates few or no clouds below 12,000 feet
with no significant weather and/or obstructions to visibility.
 TC=TEMPERATURE CELSIUS

 * =Non NWS site. Station does not report precipitation (e.g. rain,
    snow, etc.), thunder, or fog.

DCZ001-MDZ009-015-VAZ040>042-051-053>054-201300-
WASHINGTON METRO

CITY           SKY/WX    TMP DP  RH WIND       PRES   REMARKS
WASHINGTON NAT MOSUNNY   66  60  81 CALM      30.26S
DULLES         MOSUNNY   58  58 100 CALM      30.26S FOG
ANDREWS AFB    SUNNY     60  60  99 CALM      30.26S
QUANTICO       SUNNY     62  60  93 NW6       30.26F
COLLEGE PARK*  SUNNY     61  61 100 CALM      30.26S
LEESBURG*      CLOUDY    63  63 100 S5        30.27S FOG
MANASSAS*      CLOUDY    61  61 100 CALM      30.26S
GAITHERSBURG*  MOSUNNY   59  57  94 CALM      30.30S

$$

MDZ006>007-011-014-201300-
BALTIMORE METRO

CITY           SKY/WX    TMP DP  RH WIND       PRES   REMARKS
BWI AIRPORT    MOSUNNY   63  59  87 NE6       30.26S FOG
MD SCIENCE CTR   N/A     63  59  87 MISG      30.26F
ANNAPOLIS      MOSUNNY   68  62  81 SE10      30.26S
FORT MEADE*    SUNNY     57  55  94 CALM      30.28S

$$

MDZ012-015-019>023-201300-
MARYLAND EASTERN SHORE

CITY           SKY/WX    TMP DP  RH WIND       PRES   REMARKS
OCEAN CITY     CLOUDY    71  63  75 SE9       30.24S
SALISBURY      CLOUDY    62  58  86 CALM      30.25S
BAY BRIDGE AP*   N/A     64  61  88 CALM      30.26F
CAMBRIDGE*     SUNNY     61  59  94 CALM      30.25S
EASTON*        SUNNY     63  63 100 CALM      30.29F

$$

MDZ017>025-201300-
SOUTHERN MARYLAND

CITY           SKY/WX    TMP DP  RH WIND       PRES   REMARKS
PATUXENT RIVER MOSUNNY   65  62  90 CALM      30.25S
ST INIGOES     SUNNY     64  60  87 NE3       30.24F
LEONARDTOWN*   SUNNY     59  57  94 CALM      30.27S

$$

MDZ003>005-201300-
NORTH CENTRAL MARYLAND

CITY           SKY/WX    TMP DP  RH WIND       PRES   REMARKS
FREDERICK*     CLOUDY    63  63 100 CALM      30.29R FOG
HAGERSTOWN APT PTSUNNY   62  59  90 S7        30.25S FOG
WESTMINSTER*   CLOUDY    61  57  88 SE3       30.27S FOG

$$

MDZ501>502-201300-
WESTERN MARYLAND

CITY           SKY/WX    TMP DP  RH WIND       PRES   REMARKS
OAKLAND*       MOSUNNY   55 N/A N/A S10       30.24S
CUMBERLAND*    MOSUNNY   63  59  88 SW3       30.26S

$$

VAZ025>031-201300-
SHENANDOAH VALLEY

CITY           SKY/WX    TMP DP  RH WIND       PRES   REMARKS
WINCHESTER*    SUNNY     59  57  94 S3        30.24S
STAUNTON*      SUNNY     55  52  90 CALM      30.28S FOG

$$

WVZ021-048>050-054>055-201300-
EASTERN WEST VIRGINIA PANHANDLE

CITY           SKY/WX    TMP DP  RH WIND       PRES   REMARKS
MARTINSBURG    SUNNY     62  57  83 SE3       30.24F HAZE
PETERSBURG*    SUNNY     60  57  89 SE6       30.23S

$$

VAZ036>039-050-201300-
CENTRAL FOOTHILLS

CITY           SKY/WX    TMP DP  RH WIND       PRES   REMARKS
CHARLOTTESVILL FOG       58  57  97 CALM      30.26S VSB 1/2
ORANGE*        SUNNY     55  54  94 CALM      30.27F FOG

$$

VAZ055>057-201300-
NORTH AND CENTRAL PIEDMONT

CITY           SKY/WX    TMP DP  RH WIND       PRES   REMARKS
FREDERICKSBRG* SUNNY     60  60 100 CALM      30.25S
STAFFORD*      FOG       58  58 100 CALM      30.30S VSB 1/4

$$

NCZ024-NYZ072-PAZ021-071-VAZ022-071-201300-
OTHER REGIONAL OBSERVATIONS

CITY           SKY/WX    TMP DP  RH WIND       PRES   REMARKS
NEW YORK CITY  CLOUDY    62  53  72 CALM      30.32F
PHILADELPHIA   MOSUNNY   61  57  87 E7        30.28F
PITTSBURGH     MOCLDY    57  54  89 SE5       30.15R
ROANOKE        MOCLDY    60  58  92 CALM      30.29R FOG
RICHMOND       MOSUNNY   61  58  90 CALM      30.24F
RALEIGH        MOSUNNY   60  56  86 CALM      30.23R

$$

ANZ530>537-201300-
MARINE OBSERVATIONS

STATION/POSITION TIME  TEMP    WIND        PRES
                       AIR SEA DIR/SP/G
                 (UTC) (F)     (DEG/KT/KT) (MB)
THOMAS PT LIGHT  1200   67 73  120/  9/ 10 1025.5R
BALT KEY BRIDGE  1200   62      20/  5/  5 1024.6S
COVE POINT       1200   66      90/  7/  8 1024.4S
LEWISETTA        1200   70 73   80/  7/  9 1023.8F
SOLOMONS ISLAND  1200      75                N/A
PINEY POINT      1200           80/  5/  6   N/A

$$



USA.gov is the U.S. government's official web portal to all federal, state and local government web resources and services.